Location: Bennemühlen
(52.5740°N, 9.7135°E)
Time: 08:33:06
(UTC+00:00)

ISS - Pass Details

Date: 24 January 2026
Orbit: 413 x 429 km, 51.6° (Epoch: 11 February)

Event Time Altitude Azimuth Distance (km) Brightness Sun altitude
Rises 18:29:44 0° 281° (W) 2,369 1.4 -23.5°
Reaches altitude 10° 18:31:56 10° 272° (W) 1,505 0.1 -23.9°
Enters shadow 18:34:29 31° 227° (SW) 770 -2.1 -24.3°
